sat.trackr.live / text

‹ back to catalog

STARLINK-4062

NORAD 53261 · 2022-086V

PAYLOAD ACTIVE UNKNOWN

§ Identity

Operator
Country
US
Launch date
2022-07-24
Launch site
AFETR
Launch vehicle
Mass (kg)
RCS (m²)

Purposes: comms

External: N2YO · Heavens-Above · Gunter

§ Orbital elements

Epoch: 2026-05-25T04:14:03.690240Z

Period
95.44 min
Inclination
53.2142°
Eccentricity
0.0001021
Mean motion
15.08834441 rev/d
Perigee alt
539.1 km
Apogee alt
540.5 km
Semi-major
6,917.9 km
B*
3.0637e-6
RAAN
210.7590°
Arg perigee
85.6514°
Mean anomaly
274.4595°
Rev number
21,261

§ Raw data

STARLINK-40621 53261U 22086V   26145.17643160 -.00000239  00000+0  30637-5 0  99992 53261  53.2142 210.7590 0001021  85.6514 274.4595 15.08834441212619

JSON: /api/v1/satellites/53261 · /tle

For live sub-satellite position, see the globe view (requires WebGL).

§ Visibility from observer

Set your observer location to see the next 7 days of passes ≥ 10°. The values pass through the URL so the page stays shareable.

No JS? Fill the form by hand. The geolocation button needs JavaScript.